Forrest Park, Northwest Territories

10:01 AM MST on November 22, 2017 (GMT -0700)
Forrest Park

Weather History for 71936 - April, 2014

Change the Weather History Date:

Monday, April 14, 2014

  Actual Average Record
Temperature  
Mean Temperature 14 °F -  
Max Temperature 27 °F 40 °F - ()
Min Temperature 2 °F 20 °F - ()
Degree Days  
Heating Degree Days 50    
Moisture  
Dew Point -1 °F    
Average Humidity 49    
Maximum Humidity 66    
Minimum Humidity 20    
Precipitation  
Precipitation 0.00 in 0.02 in - ()
Sea Level Pressure  
Sea Level Pressure 30.24 in    
Wind  
Wind Speed 10 mph ()    
Max Wind Speed 14 mph    
Max Gust Speed 18 mph    
Visibility 15.0 miles    
Events      
T = Trace of Precipitation, MM = Missing Value Source: Averaged Metar Reports

Daily Weather History Graph

Daily Weather History Graph

Search for Another Location

Airport or City:

Trip Planner

Search our weather history database for the weather conditions in past years. The results will help you decide how hot, cold, wet, or windy it might be!

Date:

Astronomy

Apr. 14, 2014 Rise Set
Actual Time 6:15 AM MDT 9:02 PM MDT
Civil Twilight 5:24 AM MDT 9:53 PM MDT
Nautical Twilight 4:14 AM MDT 11:04 PM MDT
Astronomical Twilight 1:58 AM MDT 1:05 AM MDT
Moon 8:42 PM MDT (4/14) 6:03 AM MDT (4/14)
Length of Visible Light 16h 28m
Length of Day
14h 46m
Full, 100% of the Moon is Illuminated
Apr 14
Full
Apr 15
Full
Apr 22
Last Quarter
Apr 29
New
May 6
First Quarter

Hourly Weather History & Observations

Time (MDT) Temp. Windchill Dew Point Humidity Pressure Visibility Wind Dir Wind Speed Gust Speed Precip Events Conditions
12:00 AM 9 °F - -5 °F 38% 30.33 in 15 mi SE 11.5 mph - -  
12:00 AM 8.6 °F -6.3 °F -4.0 °F 57% 30.32 in 15.0 mi SE 11.5 mph - N/A   Clear
1:00 AM 8.6 °F -5.5 °F -4.0 °F 57% 30.30 in 15.0 mi SE 10.4 mph - N/A   Clear
2:00 AM 3.2 °F -12.2 °F -5.8 °F 66% 30.28 in 15.0 mi ESE 10.4 mph - N/A   Clear
3:00 AM 3.2 °F -12.2 °F -7.6 °F 61% 30.27 in 15.0 mi ESE 10.4 mph - N/A   Clear
4:00 AM 3.2 °F -12.2 °F -5.8 °F 66% 30.25 in 15.0 mi ESE 10.4 mph - N/A   Clear
5:00 AM 5.0 °F -10.0 °F -5.8 °F 61% 30.24 in 15.0 mi ESE 10.4 mph - N/A   Scattered Clouds
6:00 AM 3 °F - -6 °F 54% 30.23 in 15 mi ESE 10.4 mph - -   Clear
6:00 AM 3.2 °F -11.3 °F -5.8 °F 66% 30.23 in 15.0 mi ESE 9.2 mph - N/A   Mostly Cloudy
7:00 AM 5.0 °F -9.1 °F -4.0 °F 66% 30.23 in 15.0 mi ESE 9.2 mph - N/A   Mostly Cloudy
8:00 AM 5.0 °F -9.1 °F -4.0 °F 66% 30.22 in 15.0 mi ESE 9.2 mph - N/A   Mostly Cloudy
9:00 AM 8.6 °F -5.5 °F -2.2 °F 62% 30.21 in 15.0 mi ESE 10.4 mph - N/A   Mostly Cloudy
10:00 AM 10.4 °F -4.1 °F -2.2 °F 57% 30.21 in 15.0 mi ESE 11.5 mph - N/A   Mostly Cloudy
11:00 AM 14.0 °F 1.2 °F -0.4 °F 53% 30.21 in 15.0 mi ESE 10.4 mph - N/A   Mostly Cloudy
12:00 PM 17 °F - 0 °F 32% 30.21 in 15 mi East 8.1 mph - -   Clear
12:00 PM 17.6 °F 8.2 °F -0.4 °F 45% 30.20 in 15.0 mi East 6.9 mph - N/A   Mostly Cloudy
1:00 PM 21.2 °F 9.5 °F 1.4 °F 42% 30.20 in 15.0 mi ESE 11.5 mph - N/A   Mostly Cloudy
2:00 PM 24.8 °F 12.9 °F 5.0 °F 43% 30.20 in 15.0 mi ESE 13.8 mph - N/A   Mostly Cloudy
3:00 PM 26.6 °F 16.8 °F 3.2 °F 37% 30.21 in 15.0 mi ESE 10.4 mph - N/A   Partly Cloudy
4:00 PM 26.6 °F 15.2 °F 3.2 °F 37% 30.22 in 15.0 mi East 13.8 mph - N/A   Scattered Clouds
5:00 PM 26.6 °F 17.5 °F 5.0 °F 40% 30.22 in 15.0 mi East 9.2 mph - N/A   Scattered Clouds
6:00 PM 27 °F - 2 °F 20% 30.23 in 15 mi East 12.7 mph - -   Scattered Clouds
6:00 PM 26.6 °F 15.7 °F 1.4 °F 34% 30.23 in 15.0 mi East 12.7 mph 18.4 mph N/A   Partly Cloudy
7:00 PM 24.8 °F 14.6 °F 5.0 °F 43% 30.24 in 15.0 mi East 10.4 mph - N/A   Partly Cloudy
8:00 PM 23.0 °F 11.7 °F 1.4 °F 39% 30.25 in 15.0 mi East 11.5 mph - N/A   Partly Cloudy
9:00 PM 19.4 °F 7.9 °F -0.4 °F 42% 30.28 in 15.0 mi East 10.4 mph - N/A   Partly Cloudy
10:00 PM 15.8 °F 3.4 °F -0.4 °F 49% 30.30 in 15.0 mi ENE 10.4 mph - N/A   Partly Cloudy
11:00 PM 12.2 °F -0.2 °F -2.2 °F 53% 30.32 in 15.0 mi East 9.2 mph - N/A   Clear